Regional Weather Roundup
Issued by NWS

Home | Current Version | Previous Version | Graphics & Text | Print | Product List | Glossary On
Versions: 1 2 3 4 5 6 7 8 9 10 11 12 13 14 15 16 17 18 19 20 21 22 23 24 25 26 27 28 29 30 31 32 33 34 35 36 37 38 39 40 41 42 43 44 45 46 47 48 49 50
000
ASUS45 KTFX 051019
RWRMT
MONTANA HOURLY WEATHER ROUNDUP
NATIONAL WEATHER SERVICE GREAT FALLS MT
319 AM MST THU MAR 5 2015

NOTE: "FAIR" INDICATES FEW OR NO CLOUDS BELOW 12000 FEET WITH NO
SIGNIFICANT WEATHER AND/OR OBSTRUCTIONS TO VISIBILITY.

* THESE STATIONS ARE NOT UNDER NWS QUALITY CONTROL. THEY DO NOT
   REPORT WEATHER SUCH AS PRECIPITATION OR FOG.

MTZ001>007-043-051100-
WEST OF THE DIVIDE
CITY           SKY/WX    TMP DP  RH WIND       PRES   REMARKS
KALISPELL      PTCLDY    18  14  84 CALM      30.24F
MISSOULA       CLEAR     21  14  74 NE3       30.29R
BUTTE          PTCLDY    19  10  68 NW6       30.17R WCI  11
MULLAN PASS    PTCLDY    25  -2  30 SW8       30.16F WCI  16
* ANACONDA     CLEAR     21  10  62 E3         N/A
* ESSEX        N/A       13   9  84 N/A        N/A
* EUREKA APT   CLEAR     16  10  77 CALM      30.28R
* HAMILTON APT CLEAR     27  12  53 S12       30.26S WCI  16
* LIBBY APT    CLEAR     18  14  84 CALM      30.28R
* LINCOLN      N/A       26   8  46 S5G11      N/A   WCI  20
* LOOKOUT PASS N/A       21   7  55 N/A        N/A
* POLSON       N/A       24  11  57 S1         N/A
* RONAN APT    CLEAR     25  18  75 N/A        N/A
* SEELEY LAKE  N/A        7   2  80 NE1        N/A
* THOMP F APT  PTCLDY    16   6  64 NE3        N/A
$$

MTZ008-052>055-051100-
SOUTHWEST MONTANA
CITY           SKY/WX    TMP DP  RH WIND       PRES   REMARKS
BOZEMAN        CLEAR     16   9  74 CALM      30.17S
DILLON         PTCLDY    27   9  46 S13       30.17S WCI  16
* W YELLOWSTON CLEAR      3  -5  69 N/A        N/A
* THREE FORKS  CLEAR     14   7  73 N/A        N/A
* BOULDER HILL N/A       25   4  40 S2         N/A
* MONIDA PASS  N/A       14   5  67 SE14       N/A   WCI  -1
* RAYNOLDS PAS N/A        7  -8  50 SE18       N/A   WCI -12
* WHITEHALL    N/A       32   6  33 W11G17     N/A   WCI  23
* WISE RIVER   N/A       29   4  34 W14G22     N/A   WCI  18
$$

MTZ009>010-012-014-046-048-049-054-051100-
EAST SLOPES AND CENTRAL MONTANA
CITY           SKY/WX    TMP DP  RH WIND       PRES   REMARKS
CUT BANK       PTCLDY    28  10  47 W22G29    30.02R WCI  14
GREAT FALLS    CLEAR     27  12  53 SW12      30.06R WCI  16
HELENA         PTCLDY    34   9  35 W12       30.15R WCI  25
MALMSTROM AFB  MOCLDY    25  16  69 SW16      30.08R WCI  12
* CONRAD       PTCLDY    30  16  56 SW6        N/A   WCI  24
* DEARBORN     N/A       28  12  51 S4         N/A
* EAST GLACIER N/A       28   7  41 W27G37     N/A   WCI  13
* MONARCH      N/A       24   4  42 S11        N/A   WCI  13
* PENDROY      N/A       32  13  45 W16G21     N/A   WCI  21
* ROGERS PASS  N/A       23   6  48 SE9G19     N/A   WCI  13
* SWEET GRASS  N/A       27  11  51 W18        N/A   WCI  14
* WHITE SULPH  N/A       24   9  53 N3G8       N/A
$$

MTZ011-013-016-021-035-040-045-047-050-051-051100-
NORTH CENTRAL MONTANA
CITY           SKY/WX    TMP DP  RH WIND       PRES   REMARKS
HAVRE          PTCLDY    27  14  58 SW15      30.03R WCI  15
LEWISTOWN      MOCLDY    27  12  53 SW14      30.04R WCI  16
* N BAR RANCH  PTCLDY    28  10  47 W9        30.01S WCI  19
* CHINOOK      PTCLDY    21  14  74 W8        30.02F WCI  11
* FORT BENTON  CLEAR     32  14  47 SW10      30.07R WCI  24
* CHESTER      N/A       25  10  53 SE1        N/A
* DENTON       N/A       26  13  58 SW9        N/A   WCI  17
* GEYSER       N/A       29  10  45 SW6G11     N/A   WCI  23
* JUDITH GAP   N/A       19   5  54 N/A        N/A
* LOMA         N/A       26  14  60 NW4        N/A
$$

MTZ017>020-022>027-061-062-051100-
NORTHEAST MONTANA
CITY           SKY/WX    TMP DP  RH WIND       PRES   REMARKS
GLASGOW        MOCLDY    12   1  61 E8        30.01F
GLENDIVE       CLOUDY     9   0  66 S10       30.06F WCI  -5
JORDAN         PTCLDY    19  10  68 W6        30.02F WCI  11
SIDNEY         PTCLDY     1   1 100 SE3       30.13F
WOLF POINT     CLOUDY    10   1  67 E9        30.07F WCI  -3
* BEAVER HILL  N/A       11   0  61 S14        N/A   WCI  -5
* CIRCLE       N/A       19   7  59 S9         N/A   WCI   8
* LINDSAY DVD  N/A       10  -1  61 S9         N/A   WCI  -3
* NAVAJO       N/A        9  -3  58 SW12       N/A   WCI  -6
* PLENTYWOOD A CLEAR      0  -8  68 E8        30.04F WCI -14
* POPLAR APT   PTCLDY     5   0  80 CALM      30.07F
* SACO         N/A        9   2  73 NE4        N/A
$$

MTZ028>042-056>058-051100-
SOUTHCENTRAL AND SOUTHEAST MONTANA
CITY           SKY/WX    TMP DP  RH WIND       PRES   REMARKS
BAKER          CLEAR      1  -2  87 E3        30.08F
BILLINGS       MOCLDY    23   3  42 SW18      30.08F WCI   9
LIVINGSTON     PTCLDY    30   9  41 W24G31    30.09F WCI  16
MILES CITY     CLEAR      9   1  70 N/A       30.08F
* BIG TIMBER A PTCLDY    34   9  35 SW31G40   30.03S WCI  20
* FORSYTH APT  CLEAR     14   7  73 CALM      30.08F
* LAUREL APT   MOCLDY    21   1  41 S6         N/A   WCI  13
* ROUNDUP APT  MOCLDY    23   3  42 S7         N/A   WCI  15
* ALZADA       N/A        6  -1  73 N/A        N/A
* HYSHAM       N/A       19   3  49 W8         N/A   WCI   9
* REED POINT   N/A       34  13  42 W9G14      N/A   WCI  27
* ROSCOE HILL  N/A       18  -2  41 SE10       N/A   WCI   6
$$

REGIONAL REPORTS...DAKOTAS
CITY           SKY/WX    TMP DP  RH WIND       PRES   REMARKS
WILLISTON      PTCLDY     1  -8  65 S3        30.12F
DICKINSON      PTCLDY     1  -6  72 S12       30.09F WCI -16
BEACH          CLOUDY     5   0  80 S9        30.08F WCI  -9
CROSBY         CLEAR     -4 -11  71 S16       30.09F WCI -25
TIOGA          CLEAR    -13 -17  82 E5        30.12F WCI -26
WATFORD CITY   CLEAR     -6 -11  78 CALM      30.10F
BISMARCK       PTCLDY    -8 -11  86 E6        30.27F WCI -21
GRAND FORKS    PTCLDY   -15 -18  86 S7        30.38F WCI -31
FARGO          PTCLDY    -9 -17  67 S7        30.41F WCI -24
BUFFALO SD     PTCLDY     1  -6  72 SE6       30.04F WCI -11
RAPID CITY     PTCLDY     3   0  87 S5        30.16F WCI  -7
$$

REGIONAL REPORTS...WYOMING/IDAHO/WASHINGTON
CITY           SKY/WX    TMP DP  RH WIND       PRES   REMARKS
GILLETTE       PTCLDY    18   1  47 SW14      30.06F WCI   4
SHERIDAN       PTCLDY     3  -6  66 CALM      30.07F
CODY           PTCLDY    19   5  54 NW13G22   30.06F WCI   6
YELLOWSTONE LA PTCLDY    -8 -11  86 CALM      30.21S
SALMON         CLEAR     16   9  74 S3        30.31R
MULLAN PASS    PTCLDY    25  -2  30 SW8       30.16S WCI  16
SAND POINT     PTCLDY    23  21  92 CALM      30.30R
SPOKANE        MOCLDY    27  18  69 CALM      30.26R
$$

REGIONAL REPORTS...ALBERTA
CITY           SKY/WX    TMP DP  RH WIND       PRES   REMARKS
CALGARY        N/A       27   9  46 N7        29.97S WCI  19
LETHBRIDGE     CLEAR     30  12  47 W14G21    30.02S WCI  19
MEDICINE HAT   CLEAR     16  12  84 SW8       30.01S WCI   5
EDMONTON       FAIR      18   7  62 W7        29.92F WCI   9
WATERTON GATE  N/A       30   9  41 SW25G37    N/A   WCI  16
CARDSTON       N/A       32  14  47 SW10G20    N/A   WCI  24
MILK RIVER     N/A       21  14  74 NW13       N/A   WCI   8
$$

REGIONAL REPORTS...SASKATCHEWAN
CITY           SKY/WX    TMP DP  RH WIND       PRES   REMARKS
SWIFT CURRENT  FAIR      10   3  73 SW13      29.93F WCI  -5
MOOSE JAW      PTCLDY    -4 -11  71 CALM      30.01F
REGINA         FAIR     -13 -20  70 SE13      30.03F WCI -35
VAL MARIE      N/A        5   1  83 SW2        N/A
ASSINIBOIA     N/A        5  -4  66 SE2        N/A
CORONACH       N/A        5  -4  66 SE7        N/A   WCI  -7

$$



USA.gov is the U.S. government's official web portal to all federal, state and local government web resources and services.